Regional Weather Roundup
Issued by NWS Little Rock, AR

Home | Current Version | Previous Version | Graphics & Text | Print | Product List | Glossary On
Versions: 1 2 3 4 5 6 7 8 9 10 11 12 13 14 15 16 17 18 19 20 21 22 23 24 25 26 27
000
ASUS44 KLZK 271405
RWRLZK

WEATHER ROUNDUP FOR ARKANSAS
NATIONAL WEATHER SERVICE LITTLE ROCK AR
900 AM CDT SAT AUG 27 2016

NOTE: "FAIR" INDICATES FEW OR NO CLOUDS BELOW 12,000 FEET WITH NO
SIGNIFICANT WEATHER AND/OR OBSTRUCTIONS TO VISIBILITY.

ARZ001-003-010-029-271500-
NORTHWEST ARKANSAS

CITY           SKY/WX    TMP DP  RH WIND       PRES   REMARKS
FAYETTEVILLE   MOSUNNY   73  72  96 CALM      30.11R
FORT SMITH     CLOUDY    77  72  84 NE5       30.06S
HARRISON       MOSUNNY   79  73  82 CALM      30.11S
BENTONVILLE    MOSUNNY   73  70  88 CALM      30.11S
ROGERS         CLOUDY    75  72  90 S3        30.12R
SILOAM SPGS    CLOUDY    73  64  73 CALM      30.12R
HIGHFILL       CLOUDY    74  73  97 S3        30.10S
SPRINGDALE     MOSUNNY   77  73  88 SW3       30.12S
$$

ARZ004-005-016-271500-
NORTH CENTRAL ARKANSAS

CITY           SKY/WX    TMP DP  RH WIND       PRES   REMARKS
BATESVILLE     CLOUDY    73  72  94 SE5       30.09S
FLIPPIN        CLOUDY    72  68  88 CALM      30.08R VSB<1/4
MTN HOME       CLOUDY    73  72  96 CALM      30.10R
$$

ARZ040-041-271500-
WEST CENTRAL ARKANSAS

CITY           SKY/WX    TMP DP  RH WIND       PRES   REMARKS
MENA           CLOUDY    73  73 100 CALM      30.10R VSB 1/2
MOUNT IDA      PTSUNNY   76  74  93 CALM      30.06R
$$

ARZ009-017-025-026-028-271500-
NORTHEAST ARKANSAS

CITY           SKY/WX    TMP DP  RH WIND       PRES   REMARKS
CORNING          N/A     75  75 100 CALM      30.09S
JONESBORO      SUNNY     76  72  87 CALM      30.09R
NEWPORT        CLOUDY    76  74  93 SE3       30.08S
WALNUT RIDGE   MOSUNNY   75  72  88 CALM      30.08S
BLYTHEVILLE    PTSUNNY   75  73  93 CALM      30.10R
$$

ARZ022-023-033-042-044-271500-
CENTRAL ARKANSAS

CITY           SKY/WX    TMP DP  RH WIND       PRES   REMARKS
LITTLE ROCK    PTSUNNY   79  73  82 CALM      30.07S
N LITTLE ROCK    N/A     76  74  93 E3        30.05S
JACKSONVILLE   PTSUNNY   77  75  94 CALM      30.07S
SEARCY         PTSUNNY   80  75  84 CALM      30.09S HX  85
HOT SPRINGS    MOSUNNY   79  72  79 SE5       30.07S
RUSSELLVILLE   CLOUDY    79  73  82 NE3       30.07R
$$

ARZ036-271500-
EAST ARKANSAS

CITY           SKY/WX    TMP DP  RH WIND       PRES   REMARKS
WEST MEMPHIS   PTSUNNY   75  72  90 N5        30.07R
$$

ARZ050-053-066-070-073-271500-
SOUTHWEST ARKANSAS

CITY           SKY/WX    TMP DP  RH WIND       PRES   REMARKS
ARKADELPHIA    FAIR      77  74  90 N3        30.07R
TEXARKANA      SUNNY     78  74  87 VRB3      30.05R
EL DORADO      SUNNY     79  74  84 CALM      30.06R
DE QUEEN       SUNNY     79  76  90 E6        30.03S
$$

ARZ056-057-069-271500-
SOUTHEAST ARKANSAS

CITY           SKY/WX    TMP DP  RH WIND       PRES   REMARKS
PINE BLUFF     CLOUDY    76  74  93 N6        30.07S
STUTTGART      CLOUDY    75  72  88 N6        30.08R
MONTICELLO     CLOUDY    80  74  81 CALM      30.06R HX  85

$$






USA.gov is the U.S. government's official web portal to all federal, state and local government web resources and services.